Regional Weather Roundup
Issued by NWS

Home | Current Version | Previous Version | Graphics & Text | Print | Product List | Glossary On
Versions: 1 2 3 4 5 6 7 8 9 10 11 12 13 14 15 16 17 18 19 20 21 22 23 24 25 26 27 28 29 30 31 32 33 34 35 36 37 38 39 40 41 42 43 44 45 46 47 48 49 50
728
ASUS45 KTFX 270310
RWRMT
MONTANA REGIONAL WEATHER ROUNDUP
NATIONAL WEATHER SERVICE GREAT FALLS MT
900 PM MDT TUE JUL 26 2016

NOTE: "FAIR" INDICATES FEW OR NO CLOUDS BELOW 12000 FEET WITH NO
SIGNIFICANT WEATHER AND/OR OBSTRUCTIONS TO VISIBILITY.

MTZ001>007-043-270400-
WEST OF THE DIVIDE

CITY           SKY/WX    TMP DP  RH WIND       PRES   REMARKS
KALISPELL      PTCLDY    75  48  38 VRB7      30.03R
MISSOULA       CLEAR     80  52  37 N7        30.03S
BUTTE          CLOUDY    71  39  31 S8        30.22R
MULLAN PASS    CLEAR     66  47  50 NE3       30.23S
ANACONDA         N/A     68  46  45 SE5       30.17R
DEER LODGE       N/A     64  54  68 SW6       30.15S
EUREKA           N/A     77  50  38 W5        30.05R
HAMILTON         N/A     77  52  41 CALM      30.05R
LIBBY            N/A     81  48  32 NW9       30.03R
RONAN            N/A     79  59  50 CALM      30.09R
$$

MTZ008-052>055-270400-
SOUTHWEST MONTANA

CITY           SKY/WX    TMP DP  RH WIND       PRES   REMARKS
BOZEMAN        CLOUDY    72  48  42 W9        30.14R
DILLON         CLOUDY    61  50  67 W6        30.19F
W YELLOWSTONE  CLOUDY    68  36  30 NW6       30.29R
ENNIS          PTCLDY    68  43  40 S7        30.29R
THREE FORKS      N/A     77  77 100 SW9       30.09S
TWIN BRIDGES     N/A     70  50  49 SE6       30.14F
$$

MTZ009-010-012-014-046-048-049-054-270400-
EAST SLOPES AND CENTRAL MONTANA

CITY           SKY/WX    TMP DP  RH WIND       PRES   REMARKS
CUT BANK       PTCLDY    62  57  83 NW6       30.12R
GREAT FALLS    CLOUDY    65  54  67 W7        30.10R
MALMSTROM AFB  CLOUDY    66  56  70 NE5       30.09S
HELENA         TSTM      68  55  63 E15       30.09R
CHOTEAU          N/A     63  55  77 N7        30.14R
$$

MTZ011-013-016-021-045-047-050-051-270400-
NORTH CENTRAL MONTANA

CITY           SKY/WX    TMP DP  RH WIND       PRES   REMARKS
HAVRE          LGT RAIN  63  59  87 NE22G28   30.06S
LEWISTOWN      CLOUDY    66  56  70 W7        30.13R
N BAR RANCH    MOCLDY    70  46  43 NW5G15    30.13R
CHINOOK          N/A     63  61  94 N12       30.10R
$$

MTZ017>020-022>027-061-062-270400-
NORTHEAST MONTANA

CITY           SKY/WX    TMP DP  RH WIND       PRES   REMARKS
GLASGOW        CLOUDY    71  56  58 NE20      30.03R
JORDAN           N/A     79  55  43 E12       30.01S
SIDNEY         CLEAR     71  58  63 NE10      30.05R
WOLF POINT     CLEAR     73  55  53 NE10      30.06R
PLENTYWOOD       N/A     66  61  82 NE5       30.09S
POPLAR           N/A     70  57  64 NE10      30.06S
SCOBEY           N/A     62  50  65 NE1       30.09R
$$

MTZ028>42-056>058-270400-
SOUTHCENTRAL AND SOUTHEAST MONTANA

CITY           SKY/WX    TMP DP  RH WIND       PRES   REMARKS
BAKER          CLEAR     70  57  63 E12       30.08S
BILLINGS       TSTM      69  56  62 W16       30.12R
LIVINGSTON     PTCLDY    76  39  26 W10       30.11R
MILES CITY     CLOUDY    81  50  33 E13       30.01S
LAUREL           N/A     70  51  50 NE14      30.05R
ROUNDUP          N/A     81  49  32 S10       29.97R
$$

REGIONAL REPORTS...DAKOTAS

CITY           SKY/WX    TMP DP  RH WIND       PRES   REMARKS
WILLISTON      PTCLDY    73  56  54 NE7       30.08R
MINOT          MOCLDY    70  58  65 NW6       30.05R
DICKINSON      CLEAR     63  56  78 E3        30.06R
BEACH            N/A     64  64 100 E8        30.11S
CROSBY           N/A     63  61  94 E6        30.12R
WATFORD CITY     N/A    N/A N/A N/A MISG        N/A
BISMARCK       CLOUDY    71  61  70 NE7       30.02S
GRAND FORKS    CLOUDY    73  63  70 N9        29.99R
FARGO          RAIN      69  65  86 N10       29.98R FOG
BUFFALO SD       N/A     72  61  68 NE20      30.00S
RAPID CITY     CLOUDY    74  55  51 N10       30.02R
$$

REGIONAL REPORTS...WYOMING/IDAHO/WASHINGTON

CITY           SKY/WX    TMP DP  RH WIND       PRES   REMARKS
GILLETTE       CLOUDY    77  55  46 E5        30.11R
SHERIDAN       MOCLDY    79  50  36 SE5       30.05S
BUFFALO WY     MOCLDY    73  52  47 N5        30.14R
CODY           CLEAR     75  41  29 NW5       30.13S
YELLOWSTONE LA   N/A     63  36  36 VRB6      30.37S
IDAHO FALLS    CLEAR     76  43  30 NE8       30.08R
SALMON         PTCLDY    68  50  52 CALM      30.08R
BOISE          CLEAR     93  38  14 NW6       29.91S
SPOKANE        TSTM      85  48  27 NE9       29.98R
$$

REGIONAL REPORTS...ALBERTA

CITY           SKY/WX    TMP DP  RH WIND       PRES   REMARKS
EDMONTON       CLEAR     72  61  68 E3        30.03S
CALGARY        LGT RAIN  70  63  78 S5        30.11S
LETHBRIDGE     MOCLDY    64  63  94 SE3       30.09R
MEDICINE HAT   MOCLDY    61  61 100 NE3       30.03F
WATERTON GATE    N/A     63  57  82 NE1         N/A
CARDSTON         N/A     64  57  77 S2          N/A
MILK RIVER       N/A     59  57  94 NE6         N/A
ONEFOUR          N/A     61  55  82 NE16        N/A
$$

REGIONAL REPORTS...SASKATCHEWAN

CITY           SKY/WX    TMP DP  RH WIND       PRES   REMARKS
SWIFT CURRENT  CLEAR     64  57  77 E9        30.11R
SASKATOON      PTCLDY    68  50  52 SE9       30.11F
CYPRESS HILLS    N/A     57  54  88 W5          N/A
ROCKGLEN         N/A     63  54  72 E1          N/A
ASSINIBOIA       N/A     68  59  73 SE13G18     N/A
$$




USA.gov is the U.S. government's official web portal to all federal, state and local government web resources and services.